[[{"header":{"parameterUnit":"m.s-1","parameterCategory":1,"la1":30.2991,"la2":30.254,"lo1":-89.0895,"lo2":-89.0444,"dy":0.0017,"dx":0.0017,"nx":28,"ny":28,"refTime":"2023-09-23T09:00:00:Z","depth":0,"parameterNumber":2,"parameterNumberName":"U-component_of_WINDS"},"data":[0,0,0,0,0,0,0,0,0,0,0,0,0,0,0,0,0,0,0,0,0,0,0,0,0,0,0,0,0,0,0,0,0,0,0,0,0,0,0,0,0,0,0,0,0,0,0,0,0,0,0,0,0,0,0,0,0,0,-1.7753,-1.7753,0,-1.7723,-1.7723,-1.7722,-1.7659,-1.7658,-1.7657,-1.7655,-1.7626,-1.7626,-1.7627,0,0,0,0,0,0,0,0,0,0,0,0,0,-1.7759,-1.7759,-1.7753,-1.7753,-1.7752,-1.7723,-1.7722,-1.7722,-1.7659,-1.7658,-1.7656,-1.7655,-1.7626,-1.7626,-1.7627,0,0,0,0,0,0,0,0,0,0,0,0,0,-1.7746,-1.776,-1.7753,-1.7718,-1.7714,-1.7723,-1.7722,-1.7722,-1.766,-1.7658,-1.7656,-1.7654,-1.7626,-1.7626,-1.7627,-1.7669,0,0,-1.7629,-1.7629,0,0,0,0,0,0,0,0,-1.7747,-1.7745,-1.7723,-1.772,-1.7716,-1.7693,-1.7714,-1.7704,-1.766,-1.768,-1.7655,-1.7653,-1.765,-1.7648,-1.7647,-1.7667,-1.7666,-1.7629,-1.7629,-1.7629,-1.763,0,0,0,0,0,0,0,-1.7748,-1.7746,-1.7741,-1.7723,-1.7719,-1.7704,-1.77,-1.7712,-1.7676,-1.7679,-1.7674,-1.7671,-1.7648,-1.7647,-1.7646,-1.7666,-1.7629,-1.7629,-1.763,-1.763,-1.7719,-1.7721,0,0,0,0,0,0,-1.7753,-1.7748,-1.7742,-1.774,-1.7727,-1.7705,-1.7701,-1.7702,-1.7676,-1.767,-1.7673,-1.7668,-1.7646,-1.7645,-1.7645,-1.7691,-1.7629,-1.763,-1.763,-1.7717,-1.7719,-1.7721,0,0,0,0,0,0,-1.7754,-1.7753,-1.7743,-1.7743,-1.774,-1.7707,-1.7709,-1.7703,-1.7701,-1.7672,-1.7665,-1.7678,-1.7645,-1.7644,-1.7663,-1.7689,-1.763,-1.7631,-1.7715,-1.7718,-1.772,-1.7785,0,0,0,0,0,0,-1.7754,-1.7754,-1.7769,-1.7743,-1.7741,-1.7762,-1.7711,-1.7703,-1.7702,-1.7696,-1.7675,-1.7669,-1.7643,-1.7662,-1.7664,-1.7689,-1.7631,-1.7712,-1.7716,-1.7719,-1.778,-1.779,-1.7798,0,0,0,0,0,-1.7755,-1.7788,-1.777,-1.777,-1.7758,-1.7763,-1.7762,-1.7731,-1.7705,-1.772,-1.7701,-1.767,-1.7687,-1.7665,-1.7666,-1.7692,-1.771,-1.7715,-1.7719,-1.7776,-1.7788,-1.7798,0,0,0,0,0,0,-1.7818,-1.7784,-1.7763,-1.779,-1.778,-1.7753,-1.777,-1.7744,-1.7741,-1.7736,-1.7698,-1.7694,-1.7718,-1.7707,-1.7684,-1.7731,-1.7694,-1.7698,-1.7737,-1.7747,-1.7756,-1.7757,-1.7632,0,0,0,0,0,-1.7835,-1.7841,-1.7812,-1.7838,-1.7834,-1.7804,-1.7805,-1.7782,-1.777,-1.7766,-1.7748,-1.7739,-1.7741,-1.7744,-1.7745,-1.7779,-1.7773,-1.7797,-1.7806,-1.7814,-1.7818,-1.7835,-1.7845,-1.7736,-1.7736,-1.7736,0,0,-1.787,-1.7853,-1.7859,-1.7851,-1.784,-1.7848,-1.78,-1.7811,-1.7816,-1.7767,-1.7784,-1.7771,-1.7758,-1.7785,-1.7796,-1.7776,-1.7847,-1.7819,-1.7825,-1.7825,-1.784,-1.7851,-1.786,-1.7739,-1.7739,-1.7738,0,0,-1.7938,-1.7926,-1.7946,-1.7937,-1.7921,-1.7901,-1.7906,-1.7883,-1.7872,-1.7889,-1.7852,-1.7859,-1.7865,-1.7857,-1.7854,-1.7921,-1.7892,-1.7922,-1.7968,-1.7984,-1.7993,-1.8,-1.8023,-1.8032,-1.7927,-1.7927,-1.7927,0,-1.7983,-1.7993,-1.796,-1.7972,-1.797,-1.7926,-1.7947,-1.794,-1.7926,-1.7926,-1.7904,-1.7911,-1.7899,-1.7923,-1.794,-1.7939,-1.7944,-1.7924,-1.7994,-1.8001,-1.8008,-1.8029,-1.8038,-1.7931,-1.793,-1.793,-1.793,0,-1.805,-1.8057,-1.8076,-1.8063,-1.8063,-1.808,-1.8049,-1.8054,-1.8032,-1.8014,-1.8031,-1.8016,-1.8013,-1.8018,-1.7996,-1.8039,-1.8027,-1.8001,-1.7962,-1.8022,-1.8042,-1.805,-1.7936,-1.7935,-1.7934,-1.7933,0,0,-1.8154,-1.8124,-1.8131,-1.8124,-1.8105,-1.8111,-1.8127,-1.8123,-1.8127,-1.812,-1.8132,-1.8139,-1.8114,-1.8111,-1.8089,-1.8104,-1.8157,-1.8075,-1.8075,-1.809,-1.8202,-1.8221,-1.8231,-1.8139,-1.814,-1.8142,-1.8203,0,-1.8216,-1.8239,-1.821,-1.824,-1.8246,-1.8206,-1.822,-1.821,-1.8195,-1.8198,-1.8182,-1.8186,-1.8154,-1.8152,-1.8165,-1.8148,-1.8179,-1.8143,-1.8149,-1.815,-1.8152,-1.8241,-1.8261,-1.832,-1.8211,-1.8212,-1.8213,0,-1.8291,-1.8286,-1.8317,-1.8296,-1.8298,-1.831,-1.8305,-1.831,-1.8298,-1.8286,-1.8283,-1.8256,-1.8271,-1.8235,-1.8254,-1.8231,-1.8232,-1.8224,-1.8226,-1.8223,-1.8183,-1.824,-1.8338,-1.8346,-1.8225,-1.8224,-1.8223,0,-1.8362,-1.8364,-1.8382,-1.8379,-1.8355,-1.8365,-1.8356,-1.8343,-1.8343,-1.834,-1.8339,-1.8338,-1.8337,-1.8337,-1.8311,-1.8288,-1.8334,-1.8296,-1.8323,-1.8324,-1.8333,-1.8332,-1.843,-1.8337,-1.8337,-1.8337,-1.8337,0,-1.8433,-1.8453,-1.8414,-1.8425,-1.8446,-1.8415,-1.8437,-1.8424,-1.8413,-1.8421,-1.8387,-1.8396,-1.8362,-1.8368,-1.8348,-1.8367,-1.8367,-1.8357,-1.8351,-1.8359,-1.836,-1.8358,-1.8352,-1.8339,-1.8339,-1.8338,-1.8338,0,-1.8515,-1.849,-1.8507,-1.8484,-1.8479,-1.8496,-1.8476,-1.8486,-1.8469,-1.848,-1.8481,-1.8454,-1.8459,-1.8434,-1.8434,-1.8421,-1.8449,-1.8438,-1.8453,-1.8448,-1.8477,-1.8474,-1.8575,-1.8587,-1.8488,-1.8489,-1.849,0,-1.8561,-1.8575,-1.8554,-1.8557,-1.8549,-1.8555,-1.8554,-1.8525,-1.8526,-1.8515,-1.8526,-1.8528,-1.8528,-1.8538,-1.8519,-1.8519,-1.8506,-1.8542,-1.8506,-1.8513,-1.8505,-1.8504,-1.8505,-1.8549,-1.855,-1.8551,-1.8552,0,-1.8644,-1.8632,-1.8632,-1.863,-1.8631,-1.8627,-1.8622,-1.8626,-1.8594,-1.8598,-1.8602,-1.8602,-1.8603,-1.8605,-1.8602,-1.8593,-1.8567,-1.8564,-1.857,-1.8576,-1.8584,-1.8579,-1.8471,-1.8561,-1.856,-1.8559,-1.8559,-1.8558,-1.8708,-1.8719,-1.8706,-1.8708,-1.8701,-1.8697,-1.8705,-1.8689,-1.8692,-1.8689,-1.8672,-1.868,-1.8669,-1.8662,-1.8657,-1.8662,-1.8645,-1.8655,-1.8657,-1.8659,-1.8663,-1.8585,-1.8662,-1.8662,-1.8661,-1.8661,-1.8661,0,-1.8789,-1.8779,-1.8781,-1.8774,-1.8777,-1.8753,-1.8746,-1.8749,-1.8756,-1.8748,-1.8749,-1.8754,-1.8757,-1.8739,-1.8739,-1.8747,-1.8736,-1.8748,-1.8746,-1.8745,-1.8679,-1.8673,-1.8758,-1.8758,-1.8758,-1.8758,-1.8758,-1.8758,-1.883,-1.8847,-1.8833,-1.8846,-1.8836,-1.8843,-1.8841,-1.8837,-1.8831,-1.8838,-1.884,-1.8828,-1.8816,-1.8816,-1.8817,-1.8812,-1.8813,-1.883,-1.8821,-1.8759,-1.8749,-1.874,-1.8734,-1.8831,-1.8831,-1.8885,-1.8886,-1.8886]},{"header":{"parameterUnit":"m.s-1","parameterCategory":1,"la1":30.2991,"la2":30.254,"lo1":-89.0895,"lo2":-89.0444,"dy":0.0017,"dx":0.0017,"nx":28,"ny":28,"refTime":"2023-09-23T09:00:00:Z","depth":0,"parameterNumber":3,"parameterNumberName":"V-component_of_WINDS"},"data":[0,0,0,0,0,0,0,0,0,0,0,0,0,0,0,0,0,0,0,0,0,0,0,0,0,0,0,0,0,0,0,0,0,0,0,0,0,0,0,0,0,0,0,0,0,0,0,0,0,0,0,0,0,0,0,0,0,0,-1.2361,-1.2362,0,-1.2448,-1.2449,-1.245,-1.2502,-1.2502,-1.2502,-1.2502,-1.2588,-1.2591,-1.2593,0,0,0,0,0,0,0,0,0,0,0,0,0,-1.2236,-1.2238,-1.2361,-1.2362,-1.2363,-1.2448,-1.2449,-1.2451,-1.2502,-1.2502,-1.2502,-1.2502,-1.2588,-1.259,-1.2593,0,0,0,0,0,0,0,0,0,0,0,0,0,-1.2303,-1.2238,-1.2361,-1.2399,-1.2403,-1.2448,-1.245,-1.2451,-1.2502,-1.2502,-1.2502,-1.2503,-1.2587,-1.259,-1.2593,-1.2606,0,0,-1.2603,-1.2604,0,0,0,0,0,0,0,0,-1.2299,-1.2308,-1.2392,-1.2396,-1.2401,-1.2465,-1.2437,-1.2503,-1.2501,-1.2464,-1.2502,-1.2503,-1.2547,-1.2553,-1.2569,-1.261,-1.2613,-1.2603,-1.2605,-1.2606,-1.2607,0,0,0,0,0,0,0,-1.2294,-1.2304,-1.2396,-1.2393,-1.2399,-1.2411,-1.2421,-1.245,-1.2502,-1.2467,-1.2471,-1.2481,-1.2549,-1.2566,-1.2571,-1.2615,-1.2603,-1.2606,-1.2608,-1.2609,-1.267,-1.267,0,0,0,0,0,0,-1.2284,-1.23,-1.2393,-1.2398,-1.235,-1.2413,-1.2424,-1.2444,-1.2502,-1.2512,-1.2481,-1.2483,-1.256,-1.2567,-1.2574,-1.2593,-1.2606,-1.2609,-1.2611,-1.267,-1.267,-1.267,0,0,0,0,0,0,-1.2281,-1.2292,-1.2389,-1.235,-1.2364,-1.2415,-1.2437,-1.2445,-1.2462,-1.2512,-1.2522,-1.2488,-1.2561,-1.257,-1.2598,-1.2597,-1.2611,-1.2613,-1.2671,-1.267,-1.267,-1.263,0,0,0,0,0,0,-1.2277,-1.2291,-1.2297,-1.235,-1.2365,-1.2412,-1.2437,-1.2447,-1.2468,-1.2472,-1.2522,-1.253,-1.2562,-1.2593,-1.2601,-1.2601,-1.2616,-1.2671,-1.267,-1.267,-1.2631,-1.2628,-1.2625,0,0,0,0,0,-1.2273,-1.2281,-1.2297,-1.2307,-1.2374,-1.2412,-1.242,-1.2457,-1.2467,-1.2473,-1.2506,-1.2529,-1.2595,-1.2595,-1.2605,-1.2606,-1.2671,-1.2671,-1.267,-1.2633,-1.2629,-1.2625,0,0,0,0,0,0,-1.2225,-1.2289,-1.2307,-1.2333,-1.2367,-1.242,-1.2429,-1.2452,-1.2483,-1.2485,-1.2529,-1.2539,-1.2563,-1.2587,-1.2586,-1.2621,-1.2636,-1.2637,-1.2604,-1.2601,-1.2598,-1.2591,-1.2618,0,0,0,0,0,-1.2218,-1.2244,-1.2298,-1.2316,-1.2332,-1.2377,-1.2395,-1.2421,-1.2457,-1.2471,-1.2506,-1.2539,-1.2568,-1.2586,-1.2615,-1.2635,-1.2647,-1.2641,-1.2638,-1.2635,-1.2635,-1.2648,-1.2645,-1.2668,-1.2668,-1.2668,0,0,-1.2202,-1.2241,-1.2254,-1.2307,-1.2336,-1.2362,-1.2389,-1.2415,-1.2433,-1.2475,-1.2504,-1.253,-1.257,-1.2594,-1.2606,-1.2615,-1.2632,-1.2634,-1.2631,-1.2634,-1.2647,-1.2644,-1.2643,-1.2668,-1.2668,-1.2668,0,0,-1.2188,-1.2219,-1.2238,-1.2267,-1.2311,-1.2341,-1.2346,-1.2396,-1.2416,-1.2445,-1.2477,-1.2499,-1.2548,-1.2575,-1.2595,-1.2591,-1.2613,-1.2599,-1.2583,-1.2594,-1.2593,-1.2591,-1.2589,-1.2588,-1.26,-1.26,-1.26,0,-1.2163,-1.2203,-1.2244,-1.2268,-1.229,-1.233,-1.2348,-1.2374,-1.2425,-1.2439,-1.2448,-1.251,-1.254,-1.257,-1.2569,-1.2585,-1.259,-1.2594,-1.259,-1.2589,-1.2588,-1.2587,-1.2586,-1.2598,-1.2598,-1.2598,-1.2598,0,-1.2171,-1.2198,-1.2207,-1.2257,-1.228,-1.2301,-1.2343,-1.2362,-1.2385,-1.2414,-1.2443,-1.2481,-1.2518,-1.2527,-1.255,-1.2561,-1.2566,-1.2582,-1.2597,-1.2583,-1.2583,-1.2582,-1.2595,-1.2595,-1.2596,-1.2597,0,0,-1.2128,-1.22,-1.2203,-1.2225,-1.2277,-1.2299,-1.2321,-1.2359,-1.2373,-1.2407,-1.2426,-1.2467,-1.2482,-1.2505,-1.2531,-1.2541,-1.2535,-1.2556,-1.2558,-1.2551,-1.2549,-1.2536,-1.2535,-1.255,-1.255,-1.255,-1.2546,0,-1.212,-1.2164,-1.2201,-1.223,-1.2256,-1.2294,-1.2313,-1.2347,-1.2374,-1.2399,-1.2429,-1.2457,-1.2476,-1.249,-1.2501,-1.2533,-1.2535,-1.2534,-1.2568,-1.2568,-1.2556,-1.2535,-1.2522,-1.2515,-1.2546,-1.2546,-1.2546,0,-1.2117,-1.2151,-1.2183,-1.2232,-1.2244,-1.2261,-1.2299,-1.2322,-1.2361,-1.238,-1.2406,-1.2433,-1.2458,-1.2471,-1.2505,-1.2504,-1.2519,-1.2537,-1.2538,-1.2542,-1.2556,-1.2538,-1.2514,-1.2513,-1.2546,-1.2546,-1.2546,0,-1.2082,-1.2135,-1.2161,-1.218,-1.2238,-1.2249,-1.2274,-1.2313,-1.2333,-1.2365,-1.2378,-1.2413,-1.2431,-1.2457,-1.2492,-1.2499,-1.2522,-1.2539,-1.2538,-1.2537,-1.2541,-1.254,-1.2519,-1.2552,-1.2552,-1.2552,-1.2552,0,-1.207,-1.2088,-1.2146,-1.2162,-1.2183,-1.2226,-1.2245,-1.2273,-1.2307,-1.2328,-1.2363,-1.2382,-1.2429,-1.2453,-1.2481,-1.2504,-1.2513,-1.2528,-1.2535,-1.2525,-1.2523,-1.2535,-1.2537,-1.2552,-1.2552,-1.2552,-1.2552,0,-1.2034,-1.2074,-1.2105,-1.2158,-1.2172,-1.2185,-1.223,-1.2246,-1.2276,-1.2303,-1.2311,-1.2358,-1.2388,-1.2427,-1.2469,-1.2488,-1.2508,-1.2519,-1.2495,-1.2499,-1.2496,-1.2496,-1.2482,-1.2482,-1.2515,-1.2515,-1.2514,0,-1.2023,-1.2038,-1.2093,-1.211,-1.2134,-1.2162,-1.2183,-1.2225,-1.2245,-1.229,-1.2301,-1.2334,-1.2363,-1.241,-1.2446,-1.2479,-1.2491,-1.2484,-1.2496,-1.2485,-1.249,-1.2489,-1.249,-1.248,-1.248,-1.2479,-1.2479,0,-1.1999,-1.2019,-1.2048,-1.2085,-1.2109,-1.214,-1.2172,-1.2184,-1.2232,-1.2253,-1.2285,-1.2308,-1.2352,-1.2384,-1.2421,-1.2445,-1.247,-1.2475,-1.2477,-1.2466,-1.2451,-1.2458,-1.2486,-1.2475,-1.2475,-1.2476,-1.2476,-1.2476,-1.1975,-1.199,-1.2032,-1.2063,-1.2092,-1.2121,-1.2139,-1.2172,-1.22,-1.224,-1.2262,-1.2294,-1.2331,-1.2384,-1.2408,-1.2432,-1.2441,-1.2443,-1.2444,-1.2443,-1.244,-1.2448,-1.2439,-1.2439,-1.2439,-1.2439,-1.2439,0,-1.1953,-1.1982,-1.2011,-1.2055,-1.208,-1.2102,-1.2138,-1.2157,-1.2185,-1.2218,-1.2247,-1.2283,-1.2315,-1.2354,-1.2388,-1.24,-1.2412,-1.2408,-1.2407,-1.2412,-1.243,-1.2425,-1.2397,-1.2397,-1.2397,-1.2397,-1.2397,-1.2397,-1.1944,-1.1971,-1.1995,-1.2036,-1.2064,-1.2096,-1.2115,-1.2141,-1.2169,-1.2208,-1.2235,-1.2261,-1.2297,-1.2334,-1.2364,-1.2375,-1.2385,-1.2377,-1.2391,-1.2407,-1.2411,-1.2414,-1.241,-1.2379,-1.2379,-1.2371,-1.2371,-1.2371]}]]